Weather in Sukpay

Russia / Khabarovsk Krai     47°59′57″N   136°47′14″E
temp.,
°C
wind,
m/s
gust,
m/s
humid.,
%
clouds,
%
prec.,
mm/h
press.,
hPa
HPBL,
m
23 june, wed
wed2301:00+13s2281100 0.0 101115
04:00+11s22825 0.0 101119
07:00+16s126540 0.0 1011118
10:00+23wsw353948 0.0 10101389
13:00+26w44336 0.0 10092503
16:00+26wnw4531100 0.0 10072642
19:00+22wnw375177 0.0 1008532
22:00+15s22765 0.0 100918
24 june, thu
thu2401:00+13s227767 0.0 100921
04:00+14sse117499 0.0 100931
07:00+17s136687 0.0 1009160
10:00+22sw254958 0.0 1008917
13:00+25sw454174 0.0 10062103
16:00+25wsw454498 0.0 10052199
19:00+22w265947 0.0 1005536
22:00+16s2280100 0.0 100624
25 june, fri
fri2501:00+14s2282100 0.0 100626
04:00+14s2596100 0.8 100693
07:00+16ssw1494100 0.6 1006122
10:00+21sw356697 0.9 1006998
13:00+20wsw3670100 0.3 1005984
16:00+21wsw368033 1.2 1004819
19:00+20sw149192 3.6 1005396
22:00+16s2298100 7.9 100638
26 june, sat
sat2601:00+16sse2299100 6.3 100773
04:00+16s119817 7.7 100738
07:00+17ssw239684 0.0 1008180
10:00+22sw246981 0.1 10081055
13:00+25w356230 0.8 10081477
16:00+25nnw246517 3.3 10081105
19:00+24n12714 0.9 1008439
22:00+17se119399 1.8 100911
27 june, sun
sun2701:00+15ese1196100 1.0 100913
04:00+14ese1197100 1.0 100915
07:00+16se1296100 0.0 1009104
10:00+22wsw1169100 0.1 1009636
13:00+20w3488100 7.9 1008636
16:00+19w1389100 14.1 1008409
19:00+17ese0095100 2.3 100822
22:00+16sse119798 2.4 100811